Weather in Kalynivske

Ukraine / Kherson District     47°06′54″N   32°58′29″E
temp.,
°C
wind,
m/s
gust,
m/s
humid.,
%
clouds,
%
prec.,
mm/h
press.,
hPa
HPBL,
m
14 may, fri
fri1400:00+12ese3478100 0.0 101047
03:00+10se22855 0.0 100920
06:00+11s22897 0.0 100820
09:00+17ssw4657100 0.0 1009520
12:00+21ssw5746100 0.0 10101009
15:00+21ssw6750100 0.0 10091030
18:00+21sw57520 0.0 10101067
21:00+14ssw47727 0.0 1011108
15 may, sat
sat1500:00+13ssw497531 0.0 1012156
03:00+12ssw487917 0.0 1012139
06:00+12ssw3783100 0.0 1012138
09:00+19ssw5764100 0.0 1013586
12:00+23sw564696 0.0 10131626
15:00+24wsw56404 0.0 10122118
18:00+22w4447100 0.0 10121030
21:00+16w336679 0.0 101320
16 may, sun
sun1600:00+14nw22700 0.0 101210
03:00+13nne22728 0.0 101317
06:00+13nne347648 0.0 101258
09:00+20ne465698 0.0 1012390
12:00+24ene554478 0.0 10111535
15:00+26ene4438100 0.0 10091893
18:00+23ne3451100 0.0 100864
21:00+18ne2266100 0.6 100723
17 may, mon
mon1700:00+17nne3587100 4.8 100689
03:00+16nw4496100 12.3 100486
06:00+16nnw3597100 1.9 1004143
09:00+18wnw4485100 4.4 1005416
12:00+22wsw346761 0.6 10051103
15:00+24w6651100 0.8 10051954
18:00+21wsw6865100 0.1 1006476
21:00+16sw497792 0.1 1008211
18 may, tue
tue1800:00+14sw46901 0.0 1008112
03:00+13sw359538 0.0 100993
06:00+14wsw37950 0.0 1009176
09:00+19wsw3469100 0.0 1010535
12:00+23sw5648100 0.0 10101474
15:00+24ssw995280 0.0 10091865
18:00+21ssw696364 0.3 1009913
21:00+17ssw488211 0.6 1010282